This demonstration page uses our WeatherBlox Daily Observations layout. Learn more.

Left ArrowRight Arrow

39.92423, -83.80882

Hourly Observations for August 4, 2022

Temp ( °F °C ) Dew Point ( °F °C ) Humidity (%) Winds ( mph kmh ) Pressure ( in mb ) Visibility ( mi km ) Precip ( " mm )
12:56 am 00:56 Clear 75 24 N/A N/A S 5 7 29.97 1015 10 16 0.00 0.00
1:56 am 01:56 Clear 75 24 N/A N/A VRB 3 6 29.97 1015 10 16 0.00 0.00
2:56 am 02:56 Clear N/A N/A N/A SW 5 7 N/A 10 16 0.00 0.00
3:56 am 03:56 Clear N/A N/A N/A WSW 5 7 N/A 10 16 0.00 0.00
4:56 am 04:56 Clear N/A N/A N/A Calm N/A 10 16 0.00 0.00
5:56 am 05:56 Mostly Clear N/A N/A N/A Calm N/A 10 16 0.00 0.00
6:56 am 06:56 Sunny N/A N/A N/A S 3 6 N/A 8 13 0.00 0.00
7:56 am 07:56 Sunny 75 24 N/A N/A VRB 3 6 30.00 1016 10 16 0.00 0.00
8:56 am 08:56 Sunny 77 25 74 23.3 90 90 SW 8 13 30.03 1017 10 16 0.00 0.00
9:56 am 09:56 Partly Cloudy 78 25.6 74 23.3 87 87 SW 7 11 30.05 1018 10 16 0.00 0.00
10:56 am 10:56 Partly Cloudy 81 27.2 73 22.8 77 77 W 9 15 30.06 1018 10 16 0.00 0.00
11:47 am 11:47 Cloudy 82 28 73 23 74 74 VRB 7 11 30.04 1017 10 16 0.00 0.00
11:56 am 11:56 Mostly Cloudy 82 27.8 74 23.3 77 77 VRB 3 6 30.08 1019 10 16 0.00 0.00
12:20 pm 12:20 Partly Cloudy 82 28 73 23 74 74 Calm 30.04 1017 10 16 0.00 0.00
12:56 pm 12:56 Mostly Sunny 83 28.3 73 22.8 72 72 W 3 6 30.07 1018 10 16 0.00 0.00
1:56 pm 13:56 Mostly Cloudy 82 27.8 71 21.7 69 69 SW 3 6 30.06 1018 10 16 0.00 0.00
2:46 pm 14:46 Partly Cloudy with Nearby Thunderstorms 81 27 72 22 74 74 Calm 30.02 1016 8 13 0.00 0.00
2:56 pm 14:56 Partly Cloudy with Nearby Thunderstorms 80 26.7 75 23.9 85 85 SSE 5 7 30.03 1017 5 8 0.00 0.00
3:56 pm 15:56 Mostly Cloudy with Light Rain N/A N/A N/A Calm N/A 10 16 0.04 1.02
4:56 pm 16:56 Mostly Sunny 78 25.6 77 25 97 97 Calm 30.02 1017 10 16 0.01 0.25
5:56 pm 17:56 Sunny 80 26.7 75 23.9 85 85 Calm 30.01 1016 10 16 0.00 0.00
6:56 pm 18:56 Sunny 78 25.6 77 25 97 97 Calm 30.00 1016 10 16 0.00 0.00
7:56 pm 19:56 Partly Cloudy with Nearby Thunderstorms 75 24 N/A N/A SW 6 9 30.06 1018 10 16 0.00 0.00
8:11 pm 20:11 Mostly Cloudy with Nearby Thunderstorms 75 24 N/A N/A SSW 13 20 30.04 1017 10 16 0.00 0.00
8:18 pm 20:18 Mostly Cloudy 75 24 75 24 100 100 SW 8 13 30.04 1017 10 16 0.00 0.00
8:56 pm 20:56 Partly Cloudy 73 23 N/A N/A SW 5 7 30.05 1018 10 16 0.00 0.00
9:56 pm 21:56 Clear N/A N/A N/A Calm N/A 10 16 0.00 0.00
10:56 pm 22:56 Clear N/A N/A N/A S 3 6 N/A 10 16 0.00 0.00
11:56 pm 23:56 Clear N/A N/A N/A Calm N/A 10 16 0.00 0.00

Powered by AerisWeather